Regional Weather Roundup
Issued by NWS Sterling, VA

Home | Current Version | Previous Version | Graphics & Text | Print | Product List | Glossary On
Versions: 1 2 3 4 5 6 7 8 9 10 11 12 13 14 15 16 17 18 19 20 21 22 23 24 25 26
000
ASUS41 KLWX 131811
RWRLWX

REGIONAL WEATHER ROUNDUP
NATIONAL WEATHER SERVICE BALTIMORE MD/WASHINGTON DC
100 PM EST WED DEC 13 2017

Note: "FAIR" indicates few or no clouds below 12,000 feet
with no significant weather and/or obstructions to visibility.
 TC=TEMPERATURE CELSIUS

 * =Non NWS site. Station does not report precipitation (e.g. rain,
    snow, etc.), thunder, or fog.

DCZ001-MDZ009-015-VAZ040>042-051-053>054-131900-
WASHINGTON METRO

CITY           SKY/WX    TMP DP  RH WIND       PRES   REMARKS
WASHINGTON NAT MOSUNNY   33   6  32 NW16G24   29.80F WCI  23
DULLES         MOSUNNY   32   8  36 W12G20    29.79F WCI  23
ANDREWS AFB    SUNNY     31   4  32 W16G24    29.77F WCI  20
FT BELVOIR     SUNNY     33   4  29 W12G20    29.80F WCI  24
QUANTICO       MOSUNNY   34   6  31 W13G23    29.83F WCI  25
COLLEGE PARK*  SUNNY     31   4  32 W10G16    29.79F WCI  22
LEESBURG*      SUNNY     32  12  43 W13       29.79F WCI  22
MANASSAS*      SUNNY     33   7  33 W13G18    29.81  WCI  24
GAITHERSBURG*  SUNNY     29   7  39 W17       29.77F WCI  17

$$

MDZ006>007-011-014-131900-
BALTIMORE METRO

CITY           SKY/WX    TMP DP  RH WIND       PRES   REMARKS
BWI AIRPORT    MOSUNNY   30   3  31 W18       29.77F WCI  18
MD SCIENCE CTR   N/A     31   2  29 MISG      29.78F
MARTIN STATE   SUNNY     30   5  34 W17G30    29.79S WCI  18
ANNAPOLIS      SUNNY     30   5  34 W12G24    29.78F WCI  20
FORT MEADE*    SUNNY     30   5  34 W20G25    29.81F WCI  18

$$

MDZ012-015-019>023-131900-
MARYLAND EASTERN SHORE

CITY           SKY/WX    TMP DP  RH WIND       PRES   REMARKS
OCEAN CITY     SUNNY     30   7  37 W18G31    29.79F WCI  18
SALISBURY      SUNNY     30   8  39 W22G31    29.79F WCI  17
BAY BRIDGE AP* SUNNY     30   7  37 MISG      29.79F
CAMBRIDGE*     SUNNY     30   5  34 W17G26    29.80F WCI  18
EASTON*        MOSUNNY   32   3  29 W17G24    29.82F WCI  21

$$

MDZ017>025-131900-
SOUTHERN MARYLAND

CITY           SKY/WX    TMP DP  RH WIND       PRES   REMARKS
PATUXENT RIVER MOSUNNY   33   5  30 W22G30    29.81F WCI  21
ST INIGOES     SUNNY     32   8  36 W12       29.82F WCI  23
LEONARDTOWN*   SUNNY     32   7  34 W13G23    29.82F WCI  22

$$

MDZ003>005-131900-
NORTH CENTRAL MARYLAND

CITY           SKY/WX    TMP DP  RH WIND       PRES   REMARKS
FREDERICK*     SUNNY     30  -2  24 NW13      29.81F WCI  20
HAGERSTOWN APT SUNNY     28   3  34 W21G28    29.74F WCI  15
WESTMINSTER*   SUNNY     27   5  39 W16G28    29.72F WCI  14

$$

MDZ501>502-131900-
WESTERN MARYLAND

CITY           SKY/WX    TMP DP  RH WIND       PRES   REMARKS
OAKLAND*       SUNNY     16   5  62 W14G23    29.58F WCI   1
CUMBERLAND*    SUNNY     30   9  40 W8        29.81F WCI  23

$$

VAZ025>031-131900-
SHENANDOAH VALLEY

CITY           SKY/WX    TMP DP  RH WIND       PRES   REMARKS
WINCHESTER*    MOSUNNY   30   9  40 W8G20     29.77S WCI  23
FRONT ROYAL*   FAIR      32   7  34 MISG      29.76F
LURAY*         SUNNY     32   7  34 SW6G17    29.76F
NEW MARKET*    SUNNY     31   2  28 W6G16     29.75F
STAUNTON*      SUNNY     31   5  33 SW9       29.77F WCI  23
WAYNESBORO*    SUNNY     30   4  33 SW13G20   29.76S WCI  20

$$

WVZ021-048>050-054>055-131900-
EASTERN WEST VIRGINIA PANHANDLE

CITY           SKY/WX    TMP DP  RH WIND       PRES   REMARKS
MARTINSBURG    SUNNY     29   5  36 W10       29.76F WCI  20
PETERSBURG*    PTSUNNY   28   8  43 NE3       29.75F

$$

VAZ036>039-050-131900-
CENTRAL FOOTHILLS

CITY           SKY/WX    TMP DP  RH WIND       PRES   REMARKS
CHARLOTTESVILL SUNNY     34   5  29 SW6G22    29.80F
CULPEPER*      FAIR      33   3  27 SW10G16   29.82F WCI  25
ORANGE*        SUNNY     32   7  34 CALM      29.81F
GORDONSVILLE*  SUNNY     32   5  31 SW8G18    29.80F WCI  25
WARRENTON*     SUNNY     35   1  23 SW8       29.80F WCI  28

$$

VAZ055>057-131900-
NORTH AND CENTRAL PIEDMONT

CITY           SKY/WX    TMP DP  RH WIND       PRES   REMARKS
FREDERICKSBRG* SUNNY     33  10  37 W9        29.82F WCI  25
STAFFORD*      SUNNY     32   6  32 SW7G18    29.85F

$$

NCZ024-NYZ072-PAZ021-071-VAZ022-071-131900-
OTHER REGIONAL OBSERVATIONS

CITY           SKY/WX    TMP DP  RH WIND       PRES   REMARKS
NEW YORK CITY  MOSUNNY   29   5  36 W17G30    29.56S WCI  17
PHILADELPHIA   MOSUNNY   31   4  31 W26G35    29.70R WCI  17
PITTSBURGH     CLOUDY    25   9  50 VRB5G18   29.72F
ROANOKE        MOSUNNY   34   5  29 SW12G22   29.83F WCI  25
RICHMOND       PTSUNNY   37   6  27 W17G25    29.85F WCI  27
RALEIGH        PTSUNNY   38   4  24 W12       29.92F

$$

ANZ530>537-131900-
MARINE OBSERVATIONS

STATION/POSITION TIME  TEMP    WIND        PRES
                       AIR SEA DIR/SP/G
                 (UTC) (F)     (DEG/KT/KT) (MB)
THOMAS PT LIGHT  1800   29 43  280/ 23/ 26   N/A
BALT KEY BRIDGE  1736   27     290/ 22/ 26 1008.1F
COVE POINT       1736   29     300/ 12/ 17 1010.2F
LEWISETTA        1736   31 42  270/ 13/ 18 1010.2F
SOLOMONS ISLAND  1736   30 45  270/ 14/ 20 1009.3F
PINEY POINT      1742          310/ 22/ 25   N/A

$$





USA.gov is the U.S. government's official web portal to all federal, state and local government web resources and services.